Regional Weather Roundup
Issued by NWS Northern Indiana

Home | Current Version | Previous Version | Text Only | Print | Product List | Glossary Off
Versions: 1 2 3 4 5 6 7 8 9 10 11 12 13 14 15 16 17 18 19 20 21 22 23 24 25 26 27 28 29 30 31 32 33 34 35 36 37 38 39 40 41 42 43 44 45 46 47 48 49 50

000
ASUS43 KIWX 191410
RWRIWX

KIWX WEATHER ROUNDUP
NATIONAL WEATHER SERVICE NORTHERN INDIANA
1000 AM EDT FRI SEP 19 2014

NOTE: "FAIR" INDICATES FEW OR NO CLOUDS BELOW 12,000 FEET WITH NO
SIGNIFICANT WEATHER AND/OR OBSTRUCTIONS TO VISIBILITY.

* THESE STATIONS ARE NOT UNDER NWS QUALITY CONTROL. THEY ALSO MAY NOT
  REPORT WEATHER SUCH AS PRECIPITATION OR FOG.

INZ001>027-191500-
NORTHERN INDIANA

CITY           SKY/WX    TMP DP  RH WIND       PRES   REMARKS
GARY*          MOSUNNY   61  52  72 SE8       30.18R
VALPARAISO     SUNNY     58  52  80 SE8       30.19F
MICHIGAN CITY* SUNNY     59  54  82 SE5       30.20R
LAPORTE*       SUNNY     56  56 100 SE9       30.21S
KNOX*          SUNNY     57  51  82 SE8       30.19S
SOUTH BEND     SUNNY     58  52  80 SE12      30.22S
ELKHART*       SUNNY     55  52  88 SE9G17    30.22S
GOSHEN         SUNNY     58  52  80 SE12      30.22S
MONTICELLO*    SUNNY     57  52  81 SE6       30.19S
LOGANSPORT*    SUNNY     55  52  88 SE10      30.21S
ROCHESTER*     SUNNY     59  54  82 E10       30.22S HAZE
WARSAW*        SUNNY     55  52  88 SE7       30.23R
ANGOLA*        SUNNY     55  50  82 SE9       30.25R
FORT WAYNE     PTSUNNY   56  53  90 E8        30.24S
HUNTINGTON*    PTSUNNY   53  52  94 E7        30.23R FOG
PERU/GRISSOM   SUNNY     57  56  96 E9        30.21S
MARION*        SUNNY     57  50  76 SE7       30.22R

$$
INZ028>050-191500-
CENTRAL INDIANA

CITY           SKY/WX    TMP DP  RH WIND       PRES   REMARKS
LAFAYETTE      SUNNY     57  52  83 SE6       30.19S
KOKOMO*        SUNNY     55 N/A N/A SE6       30.22R
MUNCIE*        SUNNY     58  50  75 SE8       30.20F
INDIANAPOLIS   MOSUNNY   60  51  72 SE7       30.18S

$$
MIZ043>046-050>051-056>058-064>065-071>073-077>080-191500-
SOUTHWEST LOWER MICHIGAN

CITY           SKY/WX    TMP DP  RH WIND       PRES   REMARKS
BATTLE CREEK   SUNNY     54  48  80 SE7       30.24F
BENTON HARBOR  SUNNY     57  52  83 SE9       30.20S
COLDWATER*     SUNNY     56  52  84 SE9       30.25S
HILLSDALE*     SUNNY     56  51  84 SE6       30.26R
HOLLAND        SUNNY     57  52  83 SE8       30.22S
GRAND RAPIDS   MOSUNNY   53  52  96 SE8       30.23F FOG
KALAMAZOO      SUNNY     55  49  80 SE5       30.24F
STURGIS*       SUNNY     55  54  94 SE8       30.23S
THREE RIVERS*  FAIR      55  53  91 SE6       30.24F FOG

$$
OHZ001>008-015>018-024>025-191500-
NORTHWEST OHIO

CITY           SKY/WX    TMP DP  RH WIND       PRES   REMARKS
WAUSEON*       FAIR      57  52  82 VRB6      30.25S
DEFIANCE       SUNNY     56  50  80 E6        30.25S
FINDLAY        SUNNY     58  51  78 E8        30.23S
TOLEDO EXPRESS SUNNY     57  50  77 E5        30.25R
TOLEDO METCALF SUNNY     60  49  66 E8        30.26S
LIMA           SUNNY     58  51  78 E10       30.23S

$$
&&


USA.gov is the U.S. government's official web portal to all federal, state and local government web resources and services.